EXPRESS AMU1

导读

EXPRESS AMU1是由独立国家联合体(CIS)发射的通信卫星,于2015年12月24日北京时间08:00成功进入太空。作为俄罗斯“EXPRESS”系列卫星的一员,它主要承担通信与广播电视传输服务,覆盖欧亚地区,为用户提供稳定的语音、数据和多媒体通信支持,助力区域通信基础设施建设,至今仍在轨道上服务,是CIS空间通信布局的重要组成部分。

基本信息
目录编号:
41191
目录名称:
EXPRESS AMU1
国际标识:
2015-082A
轨道中心:
EARTH
卫星名称:
EXPRESS AMU1
卫星全名:
--
卫星状态:
在轨 (已飞行3828 天)
发射日期:
2015-12-24 UTC
国别 :
俄罗斯(独联体) (CIS)
星等 :
--
轨道信息
数据来源 国际轨道数据 AOE轨道数据
星历时间 2026-06-16T19:28:33+0800
22小时前
查看轨道信息
2026-06-16T10:00:00+0800
1天前
查看轨道信息
半长轴 42164.252km 42164.336km
偏心率 0.0002632 0.000259
轨道倾角 0.025° 0.025°
近地点辐角 20.482° 15.057°
升交点赤经 65.761° 69.080°
平近点角 26.742° 246.320°
近地点 35775.017km 35775.278km
远地点 35797.213km 35797.12km
周期 1436.072分钟 1436.077分钟
每日圈数 1.002735 1.002732
详细信息
使用方式:
暂无
2D轨道图
3D轨道图
轨道高度分析图
轨道倾角分析图
轨道综合分析图
查看轨道综合分析图